This is the latest recevied weather packets stored in our database for station/object DM4WH-13. If no packets are shown the sender has not sent any weather packets the latest 10 day(s).
| Time | Temp. | Humidity | Pressure | Rain* | Wind** | Luminosity | Snow |
|---|---|---|---|---|---|---|---|
| 1777734925 | 25° C | 25% | 1020.5 hPa | 0 mm | 0.45 m/s, 123° | - | - |
| 1777734613 | 26.11° C | 24% | 1020.5 hPa | 0 mm | 0.45 m/s, 114° | - | - |
| 1777734326 | 26.11° C | 24% | 1020.5 hPa | 0 mm | 0.45 m/s, 170° | - | - |
| 1777734013 | 27.22° C | 24% | 1020.6 hPa | 0 mm | 0.89 m/s, 168° | - | - |
| 1777733725 | 26.11° C | 24% | 1020.7 hPa | 0 mm | 0.45 m/s, 96° | - | - |
| 1777733413 | 26.11° C | 24% | 1020.7 hPa | 0 mm | 0.45 m/s, 179° | - | - |
| 1777733125 | 26.11° C | 25% | 1020.8 hPa | 0 mm | 0.89 m/s, 106° | - | - |
| 1777732813 | 26.11° C | 24% | 1020.9 hPa | 0 mm | 0.45 m/s, 54° | - | - |
| 1777732538 | 26.11° C | 23% | 1020.9 hPa | 0 mm | 0.89 m/s, 90° | - | - |
| 1777732226 | 26.11° C | 25% | 1021 hPa | 0 mm | 0.89 m/s, 155° | - | - |
| 1777731913 | 26.11° C | 27% | 1021 hPa | 0 mm | 0.45 m/s, 235° | - | - |
| 1777731676 | 27.22° C | 25% | 1021 hPa | 0 mm | 0.45 m/s, 72° | - | - |
| 1777731313 | 27.22° C | 23% | 1021.1 hPa | 0 mm | 0 m/s | - | - |
| 1777731026 | 27.22° C | 26% | 1021.2 hPa | 0 mm | 0.45 m/s, 112° | - | - |
| 1777730713 | 26.11° C | 25% | 1021.2 hPa | 0 mm | 0.45 m/s, 152° | - | - |
| 1777730426 | 26.11° C | 25% | 1021.3 hPa | 0 mm | 0.45 m/s, 284° | - | - |
| 1777730113 | 26.11° C | 29% | 1021.3 hPa | 0 mm | 0.45 m/s, 96° | - | - |
| 1777729826 | 25° C | 26% | 1021.4 hPa | 0 mm | 0.45 m/s, 60° | - | - |
| 1777729513 | 25° C | 24% | 1021.5 hPa | 0 mm | 0 m/s | - | - |
| 1777729226 | 26.11° C | 25% | 1021.6 hPa | 0 mm | 0.45 m/s, 149° | - | - |
| 1777728913 | 25° C | 26% | 1021.6 hPa | 0 mm | 0.45 m/s, 42° | - | - |
| 1777728626 | 25° C | 25% | 1021.7 hPa | 0 mm | 0.45 m/s, 36° | - | - |
| 1777728313 | 25° C | 27% | 1021.7 hPa | 0 mm | 0.45 m/s, 245° | - | - |
| 1777728026 | 25° C | 26% | 1021.9 hPa | 0 mm | 0.45 m/s, 300° | - | - |
| 1777727713 | 26.11° C | 27% | 1022 hPa | 0 mm | 0.89 m/s, 100° | - | - |
* Rain latest hour (hover to see other rain measurements)
** Current wind speed in m/s (hover to see current wind gust speed)